[[{"header":{"parameterUnit":"m.s-1","parameterCategory":1,"la1":30.2991,"la2":30.254,"lo1":-89.0895,"lo2":-89.0444,"dy":0.0017,"dx":0.0017,"nx":28,"ny":28,"refTime":"2025-08-15T03:00:00:Z","depth":0,"parameterNumber":2,"parameterNumberName":"U-component_of_WINDS"},"data":[0,0,0,0,0,0,0,0,0,0,0,0,0,0,0,0,0,0,0,0,0,0,0,0,0,0,0,0,0,0,0,0,0,0,0,0,0,0,0,0,0,0,0,0,0,0,0,0,0,0,0,0,0,0,0,0,0,0,0.3056,0.3057,0,0.3153,0.3154,0.3155,0.3151,0.315,0.3148,0.3147,0.3248,0.3252,0.3256,0,0,0,0,0,0,0,0,0,0,0,0,0,0.2869,0.2873,0.3056,0.3057,0.3058,0.3153,0.3154,0.3156,0.3151,0.315,0.3148,0.3146,0.3247,0.3252,0.3257,0,0,0,0,0,0,0,0,0,0,0,0,0,0.2957,0.2874,0.3056,0.3068,0.307,0.3153,0.3154,0.3156,0.3152,0.3149,0.3147,0.3145,0.3245,0.3251,0.3257,0.3336,0,0,0.3275,0.3278,0,0,0,0,0,0,0,0,0.2952,0.2964,0.3065,0.3067,0.3069,0.3138,0.3126,0.3216,0.3152,0.3121,0.3147,0.3144,0.3213,0.3222,0.3245,0.334,0.3345,0.3276,0.328,0.3282,0.3284,0,0,0,0,0,0,0,0.2946,0.296,0.3095,0.3066,0.3069,0.3069,0.3079,0.3143,0.3177,0.3123,0.3123,0.3134,0.3214,0.3239,0.3247,0.3346,0.3276,0.3281,0.3285,0.3287,0.3512,0.3514,0,0,0,0,0,0,0.2937,0.2955,0.3091,0.3097,0.3004,0.3074,0.3085,0.3118,0.3177,0.3184,0.3136,0.3134,0.323,0.324,0.3251,0.3347,0.3282,0.3288,0.3291,0.351,0.3513,0.3515,0,0,0,0,0,0,0.2933,0.2949,0.3088,0.3026,0.3044,0.3079,0.3116,0.3121,0.3146,0.3187,0.3193,0.3155,0.3228,0.3242,0.3315,0.3351,0.329,0.3296,0.3507,0.3511,0.3514,0.354,0,0,0,0,0,0,0.2928,0.2948,0.2977,0.3027,0.3047,0.3149,0.3118,0.3124,0.3156,0.3154,0.3206,0.3212,0.3228,0.3306,0.3321,0.3358,0.3301,0.3504,0.3509,0.3513,0.3536,0.3544,0.3551,0,0,0,0,0,0.2921,0.2981,0.2979,0.2995,0.3084,0.3151,0.3163,0.3179,0.3158,0.3189,0.3215,0.3211,0.3344,0.3313,0.333,0.3369,0.3502,0.3507,0.3512,0.3533,0.3543,0.3551,0,0,0,0,0,0,0.2936,0.2988,0.2986,0.3064,0.3103,0.315,0.3189,0.3189,0.3235,0.3232,0.325,0.3262,0.3335,0.3359,0.3324,0.3449,0.342,0.3429,0.343,0.344,0.3447,0.344,0.3306,0,0,0,0,0,0.2948,0.2997,0.304,0.3105,0.3125,0.3154,0.3183,0.3192,0.3234,0.3251,0.3283,0.3324,0.3375,0.3409,0.3458,0.3539,0.3551,0.3575,0.3582,0.3588,0.3596,0.3642,0.3653,0.3533,0.3533,0.3533,0,0,0.2974,0.3009,0.3039,0.3109,0.314,0.3192,0.3168,0.3223,0.3262,0.326,0.333,0.3355,0.3402,0.348,0.3515,0.3502,0.3632,0.3595,0.3599,0.3604,0.3649,0.366,0.367,0.3536,0.3536,0.3535,0,0,0.3048,0.3079,0.3136,0.3168,0.3216,0.3235,0.3249,0.3297,0.3313,0.3383,0.3383,0.343,0.3517,0.3551,0.358,0.3667,0.3665,0.3683,0.3722,0.3766,0.3776,0.3785,0.3817,0.3828,0.369,0.369,0.369,0,0.3075,0.3152,0.3166,0.3222,0.3253,0.3253,0.3312,0.3343,0.3405,0.3427,0.3411,0.3521,0.3553,0.3639,0.366,0.3683,0.37,0.3678,0.3773,0.3782,0.379,0.3821,0.3833,0.3692,0.3692,0.3692,0.3692,0,0.3183,0.3236,0.3277,0.3336,0.3372,0.3429,0.3453,0.3488,0.3494,0.3514,0.3587,0.3625,0.3683,0.3703,0.371,0.3791,0.3781,0.3769,0.3741,0.3803,0.3833,0.3845,0.3695,0.3694,0.3694,0.3693,0,0,0.327,0.3336,0.3351,0.3378,0.3431,0.3473,0.353,0.3586,0.3616,0.3659,0.3708,0.3782,0.3771,0.3804,0.3814,0.3853,0.3921,0.3836,0.3838,0.3852,0.4014,0.4024,0.4037,0.3919,0.3922,0.3923,0.401,0,0.335,0.3452,0.3467,0.3556,0.3607,0.3607,0.3657,0.3695,0.3716,0.3763,0.3786,0.3838,0.382,0.384,0.3878,0.3905,0.3954,0.3898,0.3967,0.3969,0.3956,0.4052,0.4063,0.4143,0.4022,0.4024,0.4025,0,0.3458,0.3503,0.3598,0.3644,0.3666,0.3711,0.3763,0.3807,0.3851,0.3863,0.39,0.3905,0.3966,0.3934,0.4018,0.398,0.4009,0.4026,0.403,0.4038,0.4002,0.4064,0.4169,0.4181,0.4043,0.4042,0.4041,0,0.3514,0.3598,0.3666,0.3689,0.3745,0.3776,0.3801,0.3843,0.3875,0.3921,0.3943,0.3995,0.4024,0.4065,0.4085,0.406,0.4168,0.4138,0.4181,0.4181,0.4205,0.4204,0.4317,0.4222,0.4222,0.4221,0.4221,0,0.3603,0.3661,0.3692,0.3734,0.3799,0.3816,0.3881,0.3904,0.3941,0.3989,0.3992,0.4036,0.4059,0.4107,0.4122,0.419,0.4203,0.4216,0.4219,0.4216,0.4215,0.4236,0.4232,0.4225,0.4224,0.4223,0.4223,0,0.3677,0.3699,0.3773,0.382,0.3833,0.3879,0.3919,0.3961,0.3981,0.4041,0.4056,0.4088,0.4145,0.4168,0.4237,0.4248,0.4326,0.4325,0.4312,0.4313,0.4356,0.4352,0.4488,0.4507,0.4398,0.4399,0.4399,0,0.3733,0.3778,0.3829,0.386,0.3886,0.3936,0.397,0.3988,0.4023,0.4076,0.4111,0.4167,0.4213,0.4304,0.4334,0.4387,0.4388,0.4432,0.4397,0.4392,0.4391,0.4388,0.4393,0.4439,0.4441,0.4441,0.4442,0,0.383,0.3839,0.3887,0.3939,0.3978,0.402,0.406,0.4086,0.4111,0.415,0.4207,0.4243,0.4314,0.437,0.4425,0.4451,0.4452,0.4453,0.4466,0.4464,0.4455,0.4461,0.4331,0.445,0.4449,0.4449,0.4448,0.4448,0.3898,0.3938,0.3981,0.4034,0.4066,0.4104,0.4145,0.417,0.4218,0.4277,0.4285,0.4347,0.439,0.4464,0.4492,0.4542,0.453,0.4549,0.4554,0.4559,0.4562,0.4446,0.4551,0.4551,0.4551,0.4551,0.4551,0,0.3997,0.4024,0.4073,0.4129,0.4171,0.4166,0.4211,0.4247,0.4301,0.4341,0.4386,0.4453,0.4508,0.4542,0.4597,0.463,0.4631,0.4644,0.4642,0.4649,0.4568,0.4552,0.4642,0.4642,0.4642,0.4642,0.4642,0.4642,0.4053,0.4122,0.4135,0.422,0.4247,0.4307,0.4333,0.4369,0.4401,0.4475,0.452,0.4542,0.458,0.4637,0.4688,0.4696,0.4717,0.4731,0.4739,0.4664,0.4654,0.4645,0.463,0.4735,0.4735,0.4815,0.4816,0.4816]},{"header":{"parameterUnit":"m.s-1","parameterCategory":1,"la1":30.2991,"la2":30.254,"lo1":-89.0895,"lo2":-89.0444,"dy":0.0017,"dx":0.0017,"nx":28,"ny":28,"refTime":"2025-08-15T03:00:00:Z","depth":0,"parameterNumber":3,"parameterNumberName":"V-component_of_WINDS"},"data":[0,0,0,0,0,0,0,0,0,0,0,0,0,0,0,0,0,0,0,0,0,0,0,0,0,0,0,0,0,0,0,0,0,0,0,0,0,0,0,0,0,0,0,0,0,0,0,0,0,0,0,0,0,0,0,0,0,0,0.329,0.3291,0,0.3355,0.3356,0.3356,0.3336,0.3334,0.3333,0.3332,0.3399,0.3402,0.3405,0,0,0,0,0,0,0,0,0,0,0,0,0,0.3148,0.315,0.329,0.3291,0.3292,0.3355,0.3356,0.3357,0.3336,0.3334,0.3333,0.3331,0.3398,0.3402,0.3406,0,0,0,0,0,0,0,0,0,0,0,0,0,0.3211,0.3151,0.329,0.3289,0.329,0.3355,0.3356,0.3357,0.3336,0.3334,0.3332,0.333,0.3397,0.3402,0.3406,0.3476,0,0,0.342,0.3422,0,0,0,0,0,0,0,0,0.3207,0.3216,0.3289,0.3289,0.329,0.3335,0.333,0.3397,0.3337,0.3319,0.3332,0.3329,0.338,0.3386,0.3402,0.348,0.3482,0.3421,0.3424,0.3426,0.3427,0,0,0,0,0,0,0,0.3203,0.3213,0.3316,0.329,0.3291,0.3285,0.3292,0.3343,0.336,0.332,0.3319,0.3327,0.338,0.3398,0.3404,0.3483,0.3421,0.3425,0.3428,0.3429,0.3615,0.3618,0,0,0,0,0,0,0.3198,0.321,0.3314,0.3318,0.3243,0.3289,0.3297,0.3323,0.336,0.3363,0.3328,0.3325,0.3391,0.3398,0.3406,0.3487,0.3426,0.343,0.3433,0.3613,0.3616,0.3618,0,0,0,0,0,0,0.3195,0.3208,0.3311,0.3263,0.3276,0.3294,0.3323,0.3325,0.3343,0.3366,0.3369,0.3344,0.339,0.34,0.3458,0.3489,0.3432,0.3436,0.3611,0.3614,0.3617,0.3651,0,0,0,0,0,0,0.3191,0.3207,0.3234,0.3264,0.3279,0.3362,0.3325,0.3328,0.3351,0.3348,0.3381,0.3384,0.3389,0.3451,0.3462,0.3494,0.344,0.3608,0.3612,0.3616,0.3647,0.3655,0.3661,0,0,0,0,0,0.3186,0.3243,0.3236,0.3248,0.3314,0.3364,0.3373,0.3376,0.3354,0.3381,0.3394,0.3383,0.3484,0.3457,0.347,0.3504,0.3606,0.3611,0.3616,0.3644,0.3653,0.3661,0,0,0,0,0,0,0.3218,0.3247,0.3239,0.3307,0.3333,0.3361,0.3395,0.3387,0.342,0.3416,0.3419,0.3427,0.3485,0.3501,0.347,0.357,0.3542,0.3549,0.3558,0.3568,0.3575,0.3569,0.3444,0,0,0,0,0,0.3233,0.3271,0.3295,0.3352,0.3365,0.3378,0.34,0.34,0.3428,0.3439,0.3457,0.3484,0.3521,0.3545,0.3581,0.3649,0.3654,0.3678,0.3686,0.3691,0.3697,0.373,0.374,0.3634,0.3634,0.3634,0,0,0.3264,0.3284,0.3309,0.3359,0.3379,0.3418,0.3388,0.3431,0.3459,0.3446,0.35,0.3514,0.3544,0.3606,0.3634,0.362,0.3727,0.3698,0.3702,0.3705,0.3736,0.3746,0.3755,0.3638,0.3637,0.3636,0,0,0.334,0.3361,0.3408,0.3428,0.3458,0.3465,0.3476,0.3504,0.3512,0.3567,0.3556,0.3589,0.3655,0.3675,0.3694,0.3772,0.3762,0.3784,0.3821,0.3853,0.3861,0.3868,0.3893,0.3902,0.379,0.379,0.379,0,0.3375,0.3433,0.3435,0.3477,0.3498,0.3485,0.3532,0.3552,0.3592,0.3606,0.359,0.3668,0.3688,0.3752,0.377,0.3787,0.3798,0.378,0.386,0.3867,0.3874,0.3897,0.3907,0.3793,0.3792,0.3792,0.3792,0,0.3472,0.3513,0.3548,0.3584,0.3609,0.3654,0.3661,0.3686,0.3683,0.3691,0.3745,0.3767,0.3805,0.3821,0.382,0.3884,0.3873,0.3859,0.3829,0.3886,0.3908,0.3917,0.3796,0.3795,0.3794,0.3794,0,0,0.3572,0.3605,0.3618,0.3632,0.3662,0.3693,0.3736,0.3771,0.3791,0.3819,0.3853,0.3906,0.3891,0.3912,0.3913,0.3941,0.3996,0.3922,0.3922,0.3932,0.4063,0.4072,0.4083,0.399,0.3991,0.3993,0.4059,0,0.3648,0.3722,0.3723,0.3791,0.3826,0.3812,0.3849,0.387,0.3879,0.3909,0.3918,0.3954,0.3934,0.3945,0.3973,0.3984,0.4022,0.3979,0.402,0.4021,0.401,0.4095,0.4105,0.4167,0.4068,0.407,0.4071,0,0.3747,0.3774,0.3845,0.3865,0.3879,0.3913,0.3942,0.3972,0.3995,0.3999,0.402,0.4015,0.4057,0.4027,0.4083,0.4053,0.407,0.4077,0.408,0.4082,0.4048,0.4096,0.4187,0.4195,0.4085,0.4084,0.4083,0,0.3807,0.3862,0.391,0.3923,0.3949,0.3972,0.3984,0.4005,0.4024,0.4051,0.4063,0.4095,0.4111,0.4135,0.4138,0.4116,0.4193,0.4164,0.4195,0.4195,0.421,0.4209,0.4303,0.4226,0.4225,0.4225,0.4225,0,0.389,0.3933,0.3937,0.3967,0.4013,0.4013,0.4059,0.4069,0.4086,0.4116,0.4108,0.4136,0.4139,0.4168,0.417,0.4214,0.4222,0.4225,0.4225,0.4224,0.4223,0.4234,0.4228,0.4228,0.4227,0.4227,0.4226,0,0.3965,0.397,0.4021,0.404,0.4045,0.4079,0.4094,0.4121,0.4127,0.4165,0.4174,0.4184,0.4216,0.4221,0.4261,0.4262,0.4313,0.431,0.4305,0.4304,0.4333,0.4329,0.4434,0.4447,0.4364,0.4365,0.4366,0,0.4017,0.4049,0.407,0.4088,0.4101,0.4132,0.415,0.415,0.417,0.4196,0.4219,0.4251,0.4276,0.4328,0.4339,0.4367,0.4363,0.4398,0.4368,0.4364,0.4359,0.4356,0.4358,0.4403,0.4404,0.4405,0.4406,0,0.4106,0.4106,0.4133,0.416,0.4182,0.4204,0.4224,0.424,0.4242,0.4264,0.4296,0.4316,0.4354,0.4384,0.4412,0.4423,0.4414,0.4415,0.4423,0.4422,0.4416,0.4416,0.4318,0.4412,0.4412,0.4411,0.4411,0.4411,0.4169,0.4195,0.4212,0.4242,0.4256,0.4274,0.4299,0.4307,0.4333,0.4363,0.4361,0.4396,0.4414,0.445,0.4463,0.4489,0.4478,0.4491,0.4493,0.4496,0.4497,0.4413,0.4495,0.4495,0.4495,0.4494,0.4494,0,0.4255,0.4264,0.4291,0.4318,0.434,0.4328,0.4349,0.4368,0.4398,0.4416,0.4439,0.4474,0.4502,0.4513,0.4541,0.4559,0.4555,0.4566,0.4564,0.4565,0.4507,0.4496,0.4568,0.4568,0.4568,0.4568,0.4568,0.4568,0.4302,0.4344,0.4345,0.4393,0.4402,0.4434,0.4446,0.4462,0.4475,0.4514,0.4537,0.4543,0.4557,0.4584,0.4609,0.4611,0.462,0.4632,0.4633,0.4578,0.457,0.4563,0.4552,0.4635,0.4635,0.4688,0.4688,0.4689]}]]